TimeCST,TemperatureF,Dew PointF,Humidity,Sea Level PressureIn,VisibilityMPH,Wind Direction,Wind SpeedMPH,Gust SpeedMPH,PrecipitationIn,Events,Conditions,WindDirDegrees,DateUTC
12:53 AM,53.1,48.0,83,29.91,6.0,SE,16.1,-,0.03,Rain,Rain,130,2007-01-21 06:53:00
1:09 AM,53.6,48.2,82,29.89,6.0,SE,16.1,-,0.02,Rain,Light Rain,140,2007-01-21 07:09:00
1:45 AM,51.8,48.2,88,29.93,2.5,NW,12.7,20.7,0.13,Rain,Heavy Rain,310,2007-01-21 07:45:00
1:53 AM,52.0,48.9,89,29.95,2.0,WNW,15.0,24.2,0.22,Rain,Heavy Rain,300,2007-01-21 07:53:00
1:56 AM,51.8,48.2,88,29.93,1.8,NW,11.5,24.2,0.04,Rain,Heavy Rain,310,2007-01-21 07:56:00
2:07 AM,50.0,48.2,94,29.94,2.5,NW,13.8,-,0.11,Rain,Heavy Rain,320,2007-01-21 08:07:00
2:39 AM,48.2,44.6,87,29.94,3.0,NNW,11.5,-,0.32,Rain,Rain,340,2007-01-21 08:39:00
2:53 AM,48.0,45.0,89,29.95,2.0,NNW,9.2,-,0.36,Rain,Rain,330,2007-01-21 08:53:00
2:56 AM,48.2,44.6,87,29.94,3.0,NNW,10.4,-,0.02,Rain,Heavy Rain,330,2007-01-21 08:56:00
3:02 AM,46.4,44.6,93,29.94,3.0,NW,13.8,-,0.03,Rain,Rain,320,2007-01-21 09:02:00
3:08 AM,46.4,44.6,93,29.95,4.0,NW,11.5,-,0.05,Rain,Rain,310,2007-01-21 09:08:00
3:18 AM,46.4,44.6,93,29.94,2.5,NNW,9.2,-,0.10,Rain,Heavy Rain,330,2007-01-21 09:18:00
3:37 AM,46.4,44.6,93,29.93,1.5,North,3.5,-,0.21,Rain,Rain,350,2007-01-21 09:37:00
3:41 AM,46.4,44.6,93,29.93,2.5,North,4.6,-,0.22,Rain,Light Rain,350,2007-01-21 09:41:00
3:48 AM,48.2,44.6,87,29.93,5.0,Calm,Calm,-,0.23,Rain,Light Rain,0,2007-01-21 09:48:00
3:53 AM,48.0,45.0,89,29.94,5.0,Calm,Calm,-,0.24,Rain,Rain,0,2007-01-21 09:53:00
4:48 AM,48.2,46.4,93,29.92,10.0,West,4.6,-,0.01,Rain,Light Rain,270,2007-01-21 10:48:00
4:53 AM,48.0,46.0,93,29.93,10.0,Calm,Calm,-,0.01,Rain,Light Rain,0,2007-01-21 10:53:00
5:24 AM,48.2,44.6,87,29.93,10.0,NW,4.6,-,0.00,,Overcast,310,2007-01-21 11:24:00
5:53 AM,48.0,45.0,89,29.96,10.0,WNW,8.1,-,0.00,,Overcast,300,2007-01-21 11:53:00
6:53 AM,48.0,45.0,89,29.95,10.0,Calm,Calm,-,N/A,,Overcast,0,2007-01-21 12:53:00
7:53 AM,48.0,46.0,93,29.98,8.0,Calm,Calm,-,N/A,,Overcast,0,2007-01-21 13:53:00
8:53 AM,48.0,46.0,93,30.00,7.0,Calm,Calm,-,0.00,,Overcast,0,2007-01-21 14:53:00
9:41 AM,48.2,46.4,93,29.98,10.0,Calm,Calm,-,0.01,,Overcast,0,2007-01-21 15:41:00
9:51 AM,50.0,46.4,87,29.98,10.0,Calm,Calm,-,0.01,,Overcast,0,2007-01-21 15:51:00
9:53 AM,50.0,46.9,89,30.00,10.0,Calm,Calm,-,0.01,,Mostly Cloudy,0,2007-01-21 15:53:00
10:53 AM,51.1,48.0,89,30.01,10.0,Calm,Calm,-,0.00,,Overcast,0,2007-01-21 16:53:00
11:36 AM,51.8,48.2,88,29.98,10.0,SSW,3.5,-,N/A,,Overcast,200,2007-01-21 17:36:00
11:53 AM,54.0,50.0,86,29.99,10.0,Calm,Calm,-,N/A,,Mostly Cloudy,0,2007-01-21 17:53:00
12:53 PM,55.9,51.1,84,29.95,10.0,Calm,Calm,-,N/A,,Partly Cloudy,0,2007-01-21 18:53:00
1:53 PM,60.1,51.1,72,29.95,10.0,Variable,3.5,-,N/A,,Scattered Clouds,0,2007-01-21 19:53:00
2:53 PM,61.0,48.9,64,29.94,10.0,ESE,4.6,-,N/A,,Mostly Cloudy,120,2007-01-21 20:53:00
3:53 PM,60.1,48.0,64,29.93,10.0,ESE,6.9,-,N/A,,Mostly Cloudy,110,2007-01-21 21:53:00
4:53 PM,57.9,51.1,78,29.96,10.0,SSE,6.9,-,N/A,,Overcast,150,2007-01-21 22:53:00
5:53 PM,57.0,52.0,83,29.96,10.0,SE,3.5,-,N/A,,Overcast,130,2007-01-21 23:53:00
6:53 PM,55.9,52.0,87,29.98,10.0,SSE,3.5,-,N/A,,Overcast,160,2007-01-22 00:53:00
7:53 PM,55.0,52.0,89,30.00,10.0,SSE,3.5,-,N/A,,Scattered Clouds,160,2007-01-22 01:53:00
8:53 PM,54.0,51.1,90,30.01,10.0,Calm,Calm,-,N/A,,Partly Cloudy,0,2007-01-22 02:53:00
9:53 PM,55.0,51.1,86,30.02,10.0,WNW,3.5,-,N/A,,Overcast,290,2007-01-22 03:53:00
10:53 PM,51.1,48.9,92,30.04,10.0,WNW,3.5,-,N/A,,Clear,290,2007-01-22 04:53:00
11:45 PM,50.0,48.2,94,30.02,1.5,WNW,3.5,-,N/A,,Clear,300,2007-01-22 05:45:00
11:53 PM,50.0,48.0,93,30.04,1.5,WNW,3.5,-,N/A,,Clear,300,2007-01-22 05:53:00
11:55 PM,50.0,48.2,94,30.02,3.0,WNW,3.5,-,N/A,,Clear,300,2007-01-22 05:55:00